Flag for Iran Weather past 2 weeks in Mashhad, Iran

Now
64 °F

Sprinkles. Scattered clouds.


Feels Like: 64 °F
Forecast: 43 / 70 °F
Wind: 9 mph from Southeast

Location: Mashhad Airport


UV Index: 7 (High)

Visibility: N/A


Pressure: 30.07 "Hg

Humidity: 46%

Dew point: 43 °F

Location of MashhadLocation

Historic Weather in Mashhad

°F

Mashhad temperature yesterday

Maximum temperature yesterday: 72 °F (at 2:30 PM)
Minimum temperature yesterday: 52 °F (at 4:55 AM)
Average temperature yesterday: 61 °F

Past Weeks' High & Low Weather Summary

 TemperatureHumidityPressure
High81 °F (Apr 9, 4:30 PM)100% (Apr 4, 9:55 PM)30.48 "Hg (Apr 4, 9:55 PM)
Low37 °F (Apr 7, 7:00 AM)12% (Apr 9, 5:00 PM)29.77 "Hg (Apr 3, 4:00 PM)
Average56 °F59%30.08 "Hg
* Reported Apr 2 1:30 PM — Apr 17 1:30 PM, Mashhad, Weather by CustomWeather, © 2014

Note: Actual official high and low records may vary slightly from our data, if they occured in-between our weather recording intervals... More about our weather records

Advertising

Historic Weather Conditions — Data for Previous 24 hours

 ConditionsComfort  
Time TempWeatherWind HumidityBarometerVisibility
1:30 PM
Apr 17
66 °FScattered clouds.7 mph35%30.07 "HgN/A
1:00 PM68 °FScattered clouds.9 mph35%30.07 "HgN/A
12:30 PM68 °FScattered clouds.5 mph40%30.09 "HgN/A
12:00 PM68 °FScattered clouds.5 mph43%30.09 "HgN/A
11:30 AM66 °FPartly sunny.7 mph46%30.09 "HgN/A
11:00 AM64 °FScattered clouds.5 mph49%30.09 "HgN/A
10:30 AM64 °FScattered clouds.7 mph52%30.09 "HgN/A
10:00 AM63 °FPassing clouds.5 mph56%30.09 "HgN/A
9:30 AM61 °FPartly sunny.7 mph59%30.09 "HgN/A
9:00 AM59 °FPartly sunny.9 mph63%30.09 "HgN/A
8:30 AM59 °FBroken clouds.5 mph63%30.09 "HgN/A
8:00 AM57 °FPartly sunny.5 mph72%30.09 "HgN/A
7:00 AM54 °FClear.5 mph82%30.09 "Hg5 mi
6:30 AM52 °FClear.5 mph82%30.09 "Hg5 mi
6:00 AM50 °FClear.5 mph88%30.09 "Hg10 mi
5:30 AM50 °FClear.5 mph88%30.07 "Hg5 mi
5:00 AM50 °FClear.5 mph88%30.07 "Hg5 mi
4:30 AM52 °FClear.5 mph82%30.07 "Hg10 mi
4:00 AM52 °FClear.5 mph82%30.07 "Hg10 mi
3:30 AM52 °FClear.5 mph82%30.07 "Hg10 mi
3:00 AM52 °FClear.5 mph82%30.07 "Hg10 mi
2:30 AM52 °FPassing clouds.5 mph82%30.07 "HgN/A
2:00 AM52 °FPassing clouds.5 mph82%30.07 "HgN/A
1:30 AM52 °FPassing clouds.5 mph82%30.09 "HgN/A
1:00 AM54 °FPassing clouds.5 mph77%30.09 "HgN/A
12:20 AM55 °FPassing clouds.5 mph72%30.09 "HgN/A
11:55 PM
Apr 16
55 °FPassing clouds.7 mph72%30.09 "HgN/A
11:30 PM57 °FPassing clouds.7 mph67%30.09 "HgN/A
10:55 PM57 °FPassing clouds.7 mph67%30.12 "HgN/A
10:30 PM57 °FPassing clouds.7 mph67%30.12 "HgN/A
9:55 PM59 °FPassing clouds.7 mph63%30.12 "HgN/A
9:30 PM59 °FPassing clouds.5 mph63%30.12 "HgN/A
9:00 PM59 °FPassing clouds.5 mph63%30.12 "HgN/A
8:30 PM59 °FScattered clouds.9 mph68%30.12 "HgN/A
8:00 PM61 °FScattered clouds.12 mph59%30.12 "HgN/A
7:30 PM61 °FScattered clouds.9 mph59%30.09 "HgN/A
6:58 PM61 °FScattered clouds.12 mph63%30.07 "HgN/A
6:30 PM63 °FScattered clouds.9 mph68%30.07 "HgN/A
5:30 PM63 °FHail. Scattered clouds.14 mph64%30.04 "Hg4 mi
5:00 PM68 °FHail. Broken clouds.18 mph43%30.04 "Hg4 mi
4:20 PM70 °FThunderstorms. Scattered clouds.16 mph40%30.04 "HgN/A
3:59 PM70 °FScattered clouds.9 mph38%30.04 "HgN/A
3:30 PM72 °FScattered clouds.12 mph38%30.04 "HgN/A
3:00 PM72 °FScattered clouds.12 mph38%30.04 "HgN/A
Weather by CustomWeather, © 2014

See weather overview